Regional Weather Roundup
Issued by NWS Bismarck, ND

Home | Current Version | Previous Version | Text Only | Print | Product List | Glossary On
Versions: 1 2 3 4 5 6 7 8 9 10 11 12 13 14 15 16 17 18 19 20 21 22 23 24 25 26 27 28 29 30 31 32 33 34 35 36 37 38 39 40 41 42 43 44 45 46 47 48 49 50
000
ASUS43 KBIS 131902
RWRBIS

NWR BROADCAST TEXT
NATIONAL WEATHER SERVICE BISMARCK ND
100 PM CST SAT FEB 13 2016

NOTE: "FAIR" INDICATES FEW OR NO CLOUDS BELOW 12,000 FEET WITH NO
SIGNIFICANT WEATHER AND/OR OBSTRUCTIONS TO VISIBILITY.


CITY           SKY/WX    TMP DP  RH WIND       PRES   REMARKS
WILLISTON      CLOUDY    21  13  71 S10       29.93R WCI  10
MINOT          CLOUDY    17   5  59 SE17G25   30.02F WCI   1
MINOT AFB      CLOUDY    16   7  67 SE20      30.02F WCI  -1
BISMARCK       CLOUDY    15   5  64 S23       30.09F WCI  -3
DICKINSON      CLOUDY    16  13  88 S26       29.83F FOG     WCI  -3
GARRISON         N/A     12   8  84 SE23      29.99F WCI  -7
HETTINGER ARPT CLOUDY    19  17  92 SE15G24   29.91F FOG     WCI   5
JAMESTOWN      CLOUDY     7  -2  66 SE18G30   30.21F WCI -12
CARRINGTON     CLOUDY     7   0  72 SE24      30.20F WCI -15
HAZEN          LGT SNOW  14   7  73 S17G25    30.03F WCI  -3
LINTON         CLOUDY    10   7  85 SE24G33   30.12F WCI -10
MANDAN         FLURRIES  10   7  85 SE22G29   30.05F WCI  -9
OAKES          CLOUDY    10   0  61 SE18G24   30.29F WCI  -8
STANLEY        MOCLDY    14  10  85 S21G31    29.95F WCI  -4
WATFORD CITY   FAIR      19  14  79 SE12G18   29.89F WCI   7
$$

CITY           SKY/WX    TMP DP  RH WIND       PRES   REMARKS
GRAND FORKS    MOSUNNY    5  -5  63 S17       30.39F WCI -14
GRAND FORKS AF SUNNY      6  -4  62 S17       30.36F WCI -13
DEVILS LAKE    CLOUDY     5  -4  66 SE20      30.22F WCI -15
FARGO          SUNNY      9  -3  58 SE21G26   30.39F WCI -11
CAVALIER       FAIR       3  -4  72 S14G21    30.36F WCI -15
GRAFTON        FAIR       3  -6  66 SE15      30.41F WCI -15
GWINNER        CLOUDY     9   1  72 SE20      30.32F WCI -11
LANGDON        FAIR       3  -8  60 S21G26    30.24F WCI -18
ROLLA          CLOUDY     1  -6  71 S16       30.15F WCI -18
$$

CITY           SKY/WX    TMP DP  RH WIND       PRES   REMARKS
ABERDEEN       CLOUDY    13   0  56 SE23      30.27F WCI  -6
MOBRIDGE       CLOUDY    17  11  77 SE16G24   30.07F HAZE    WCI   2
BUFFALO          N/A     27  24  89 S13       29.77F WCI  16
RAPID CITY     CLOUDY    43  32  65 S8        29.88F
GLASGOW        CLOUDY    27  25  92 CALM      29.79F
SIDNEY         CLOUDY    27  19  74 SE9       29.87F WCI  17
GLENDIVE       CLOUDY    34  28  80 S9        29.85F
MILES CITY     CLOUDY    42  32  67 W7        29.82S
BAKER          PTSUNNY   41  32  70 SE10      29.80F
$$

CITY           SKY/WX    TMP DP  RH WIND       PRES   REMARKS
BILLINGS       CLOUDY    43  27  53 W22G39    29.92R
GREAT FALLS    CLOUDY    45  20  36 W25G35    29.94R
$$




USA.gov is the U.S. government's official web portal to all federal, state and local government web resources and services.